Location: Spondin
(51.8528°N, 111.6118°W)
Time: 18:51:13
(UTC+00:00)

Vanguard 2 Rocket - Pass Details

Date: 02 June 2022
Orbit: 553 x 3323 km, 32.9° (Epoch: 02 July)

Event Time Altitude Azimuth Distance (km) Brightness Sun altitude
Rises 15:39:36 0° 176° (S) 6,554 11.5 38.0°
Reaches altitude 10° 15:48:04 10° 152° (SSE) 6,009 11.7 39.3°
Maximum altitude 15:54:46 13° 131° (SE) 5,969 12.1 40.3°
Drops below altitude 10° 16:01:40 10° 111° (ESE) 6,281 12.3 41.3°
Sets 16:10:54 0° 89° (E) 7,141 12.2 42.6°
